{"data":{"norad_id":57868,"epoch":"2026-09-20T10:49:48.462240Z","epoch_age_seconds":139392,"freshness":"FRESH","line1":"1 57868U 23144E   26263.45125535  .00000264  00000+0  19118-4 0  9992","line2":"2 57868  43.0021 265.2554 0000983 279.2617  80.8123 15.27575164167389","mean_motion":15.27575164,"eccentricity":9.83e-5,"inclination_deg":43.0021,"raan_deg":265.2554,"arg_perigee_deg":279.2617,"mean_anomaly_deg":80.8123,"bstar":1.9118e-5,"rev_number":16738,"period_min":94.267047143482,"perigee_km":482.3891207849,"apogee_km":483.7380328183,"semimajor_km":6861.2005768016,"source":"CELESTRAK","updated_at":"2026-09-21T09:00:33.716495Z"}}